#timestamp,LO_Frequency,Hit,StdDev 
1543356015.4,286046996.7,N
1543356035.2,286046997.3,N
1543356055.0,286046997.3,N
1543356055.9,286046997.3,N
1543356075.8,286046995.1,Y
1543356095.6,286046998.3,P
1543356115.5,286047002.6,P
1543356135.3,286047004.3,N
1543356155.1,286047004.3,N
1543356175.9,286047001.5,N
1543356195.7,286047001.9,N
1543356215.5,286047003.7,N
1543356235.4,286047003.5,N
1543356255.2,286047001.4,N
1543356275.1,286047005.9,N
1543356276.0,286047005.9,N
1543356295.8,286047003.0,N
1543356315.6,286047003.0,N
1543356335.5,286047003.8,N
1543356355.3,286047003.9,N
1543356375.1,286047001.4,N
1543356395.9,286047003.4,N
1543356415.7,286047005.9,N
1543356435.6,286047003.3,N
1543356455.4,286047004.5,N
1543356475.2,286047005.0,N
1543356495.1,286047004.9,N
1543356496.0,286047004.9,N
1543356515.8,286047005.6,N
1543356535.6,286047003.7,N
1543356555.5,286047001.4,N
1543356575.3,286047002.0,N
1543356595.2,286047001.3,N
1543356615.9,286047001.5,N
1543356635.7,286046999.7,N
1543356655.6,286047002.0,N
1543356675.4,286047002.1,N
1543356695.2,286047003.9,N
1543356715.1,286047004.2,N
1543356716.0,286047004.2,N
1543356735.8,286047002.0,N
1543356755.7,286047004.4,N
1543356775.5,286047005.5,Y
1543356795.3,286047002.7,P
1543356815.2,286047003.5,P
1543356835.0,286047003.6,P
1543356835.9,286047003.6,Y
1543356855.7,286047001.6,P
1543356875.6,286047005.5,P
1543356895.4,286047005.6,P
1543356915.3,286047007.5,Y
1543356935.1,286047003.9,P
1543356955.8,286047004.0,P
1543356975.7,286047002.9,P
1543356995.5,286047003.3,Y
1543357015.4,286047000.9,P
1543357035.2,286047001.1,N
1543357055.0,286047001.0,N
1543357055.9,286047001.0,N
1543357075.8,286047000.6,N
1543357095.6,286047002.5,N
1543357115.4,286047004.2,Y
1543357135.3,286047001.4,P
1543357155.1,286047002.8,P
1543357175.9,286046999.7,N
1543357195.7,286047002.7,N
1543357215.5,286047001.4,N
1543357235.4,286047001.8,N
1543357255.2,286047002.9,Y
1543357275.1,286047002.1,P
1543357276.0,286047002.1,P
1543357295.8,286047002.0,P
1543357315.6,286046999.8,N
1543357335.5,286046999.9,N
1543357355.3,286047000.2,N
1543357375.1,286046998.9,N
1543357395.9,286046997.4,N
1543357415.7,286046997.8,N
1543357435.6,286046997.3,N
1543357455.4,286047001.1,N
1543357475.2,286047001.1,N
1543357495.1,286047000.3,N
1543357496.0,286047000.3,N
1543357515.8,286047000.5,N
1543357535.6,286047000.0,N
1543357555.5,286047000.9,N
1543357575.3,286047000.1,N
1543357595.2,286046998.3,N
1543357615.9,286047000.4,N
1543357635.7,286047002.8,N
1543357655.6,286046999.8,N
1543357675.4,286047003.9,N
1543357695.2,286047004.4,N
1543357715.1,286047000.7,N
1543357716.0,286047000.7,N
1543357735.8,286046999.0,N
1543357755.7,286046998.4,N
1543357775.5,286046998.9,N
1543357795.3,286046998.6,N
1543357815.2,286046998.4,N
1543357835.0,286046999.9,N
1543357835.9,286046999.9,N
1543357855.8,286047001.5,N
1543357875.6,286047002.4,N
1543357895.4,286047002.8,N
1543357915.3,286047002.2,N
1543357935.1,286047003.7,N
1543357955.8,286047003.2,N
1543357975.7,286047005.0,N
1543357995.5,286047003.4,N
1543358015.3,286047004.4,N
1543358035.2,286047003.2,N
1543358055.0,286047003.9,N
1543358055.9,286047003.9,N
1543358075.8,286047003.1,N
1543358095.6,286047004.7,N
1543358115.4,286047003.8,N
1543358135.3,286047007.4,Y
1543358155.1,286047004.3,P
1543358175.9,286047001.4,N
1543358195.7,286047004.4,P
1543358215.5,286047002.2,N
1543358235.4,286047000.4,N
1543358255.2,286046999.8,N
1543358275.0,286047000.9,N
1543358275.9,286047000.9,N
1543358295.8,286047000.8,N
1543358315.6,286046999.6,N
1543358335.5,286047001.1,N
1543358355.3,286046999.4,N
1543358375.1,286046999.0,N
1543358395.9,286046996.5,N
1543358415.7,286047001.1,N
1543358435.5,286047000.6,N
1543358455.4,286046998.7,N
1543358475.2,286046998.1,N
1543358495.1,286047000.8,N
1543358496.0,286047000.8,N
1543358515.8,286046999.8,N
1543358535.6,286046998.1,N
1543358555.5,286047000.4,N
1543358575.3,286047002.8,N
1543358595.1,286047002.8,N
1543358615.9,286046998.2,N
1543358635.7,286046996.7,N
1543358655.6,286046995.2,N
1543358675.4,286046993.3,Y
1543358695.2,286046993.4,P
1543358715.1,286046993.6,N
1543358716.0,286046993.6,N
1543358735.8,286046994.6,N
1543358755.6,286046994.5,N
1543358775.5,286046993.9,N
1543358795.3,286046995.9,N
1543358815.2,286046992.9,Y
1543358835.9,286046994.9,P
1543358855.7,286046998.5,P
1543358875.6,286046998.2,N
1543358895.4,286046998.4,N
1543358915.2,286046997.3,N
1543358935.1,286046999.5,N
1543358936.0,286046999.5,N
1543358955.8,286046999.1,N
1543358975.7,286046996.8,N
1543358995.5,286046998.7,N
1543359015.3,286046999.3,N
1543359035.2,286046998.5,N
1543359055.0,286046998.4,N
1543359055.9,286046998.4,N
1543359075.7,286046998.6,N
1543359095.6,286046998.9,N
1543359115.4,286046998.3,N
1543359135.3,286046998.7,N
1543359155.1,286046998.6,N
1543359156.0,286046998.6,N
1543359175.8,286046999.3,N
1543359195.7,286046998.7,N
1543359215.5,286046998.3,N
1543359235.3,286047000.6,N
1543359255.2,286047002.8,N
1543359275.0,286047004.1,N
1543359275.9,286047004.1,N
1543359295.8,286047005.1,N
1543359315.6,286047004.5,N
1543359335.4,286047007.0,N
1543359355.3,286047004.6,N
1543359375.1,286047004.6,N
1543359395.9,286047008.6,Y
1543359415.7,286047010.8,P
1543359435.5,286047007.9,N
1543359455.4,286047006.8,N
1543359475.2,286047009.2,N
1543359495.0,286047006.1,N
1543359495.9,286047006.1,N
1543359515.8,286047008.6,N
1543359535.6,286047008.6,N
1543359555.5,286047008.2,N
1543359575.3,286047008.3,Y
1543359595.1,286046999.9,P
